Location: Capvern
(43.1036°N, 0.3160°E)
Time: 05:49:38
(UTC+00:00)

Cosmos 489 Rocket - Pass Details

Date: 02 June 2022
Orbit: 952 x 983 km, 74.0° (Epoch: 03 July)

Event Time Altitude Azimuth Distance (km) Brightness Sun altitude
Rises 00:53:18 0° 350° (N) 3,647 8.6 -23.4°
Reaches altitude 10° 00:56:49 10° 10° (N) 2,702 7.9 -23.3°
Maximum altitude 01:00:51 18° 50° (NE) 2,206 7.0 -23.1°
Drops below altitude 10° 01:04:53 10° 91° (E) 2,706 7.0 -22.9°
Sets 01:08:23 0° 110° (ESE) 3,655 7.5 -22.7°
